[Date Prev][Date Next][Thread Prev][Thread Next] - [Date Index][Thread Index][Author Index]
2 Line ISS Keps 5-24
- Subject: [sarex] 2 Line ISS Keps 5-24
- From: "Dave Larsen PhD" <doc@xxxxxxxxxxx>
- Date: Fri, 24 May 2002 05:56:24 -0700
ISS
1 25544U 98067A 02144.44910632 .00028824 00000-0 35697-3 0 4857
2 25544 51.6350 172.2916 0006691 108.9163 32.0682 15.59810475200323
----
Via the sarex mailing list at AMSAT.ORG courtesy of AMSAT-NA.
To unsubscribe, send "unsubscribe sarex" to Majordomo@amsat.org
AMSAT Home